FW1208 Weather Reports


time (UTC)temp
F
wind
direction
speed
knots
gust
knots
rain 1hr
in
rain 24hr
in
rain mn
in
humidity
%
barometer
mb
20260507174549 51 39 1.7 7.0 0.01 0.03 0.03 72 1012.5
20260507174047 51 44 1.7 7.0 0.01 0.03 0.03 73 1012.2
20260507173545 51 66 1.7 4.3 0.01 0.03 0.03 73 1012.3
20260507173045 52 22 1.7 6.1 0.01 0.03 0.03 71 1012.5
20260507172546 52 56 2.6 7.8 0.01 0.03 0.03 69 1012.3
20260507172044 52 30 2.6 7.8 0.01 0.03 0.03 67 1012.5
20260507171544 52 34 0.9 7.0 0.01 0.03 0.03 69 1012.4
20260507171044 53 48 2.6 7.0 0.01 0.03 0.03 68 1012.5
20260507170544 52 54 1.7 4.3 0.01 0.03 0.03 71 1012.4
20260507170043 52 340 2.6 6.1 0.01 0.03 0.03 70 1012.5
20260507165543 51 60 2.6 6.1 0.01 0.03 0.03 70 1012.3
20260507165046 52 54 3.5 10.4 0.00 0.02 0.02 65 1012.6
20260507164542 53 13 4.3 10.4 0.00 0.02 0.02 59 1012.6
20260507164042 53 78 3.5 10.4 0.00 0.02 0.02 58 1012.8
20260507163642 53 59 4.3 10.4 0.00 0.02 0.02 57 1012.7
20260507163041 54 350 2.6 11.3 0.00 0.02 0.02 58 1013.0
20260507162541 54 5 5.2 13.0 0.00 0.02 0.02 56 1012.9
20260507162041 54 39 4.3 11.3 0.00 0.02 0.02 56 1012.9
20260507161540 55 360 4.3 11.3 0.00 0.02 0.02 56 1012.9
20260507161040 54 42 3.5 9.6 0.00 0.02 0.02 57 1013.1
20260507160540 54 53 4.3 9.6 0.00 0.02 0.02 58 1013.1
20260507160040 54 67 3.5 10.4 0.00 0.02 0.02 57 1013.2
20260507155538 54 5 4.3 12.2 0.00 0.02 0.02 58 1013.3
20260507155038 54 55 5.2 12.2 0.00 0.02 0.02 56 1013.3
20260507154537 53 57 4.3 13.9 0.00 0.02 0.02 57 1013.3
20260507154038 53 32 7.0 13.9 0.00 0.02 0.02 56 1013.1
20260507153536 54 45 4.3 13.9 0.00 0.02 0.02 57 1013.3
20260507153036 54 24 6.1 13.9 0.00 0.02 0.02 58 1013.1
20260507152536 54 29 7.0 13.0 0.00 0.02 0.02 58 1013.0
20260507152035 54 17 5.2 13.0 0.00 0.02 0.02 59 1013.0
20260507151535 53 30 5.2 17.4 0.00 0.02 0.02 59 1012.9
20260507151034 53 26 6.1 17.4 0.00 0.02 0.02 60 1013.1
20260507150534 53 44 8.7 15.6 0.00 0.02 0.02 61 1013.0
20260507150034 53 17 6.1 11.3 0.00 0.02 0.02 63 1013.0
20260507145532 53 38 5.2 15.6 0.00 0.06 0.02 62 1013.2
20260507145031 53 24 7.8 15.6 0.00 0.06 0.02 63 1013.2
20260507144534 53 45 7.8 13.0 0.00 0.06 0.02 63 1013.0
20260507144030 53 31 7.8 13.9 0.00 0.06 0.02 64 1013.1
20260507143528 53 360 6.1 13.9 0.00 0.06 0.02 68 1013.0
20260507143032 53 9 5.2 13.0 0.00 0.06 0.02 70 1013.4
20260507142527 53 34 6.1 17.4 0.00 0.06 0.02 70 1013.3
20260507142025 53 355 8.7 14.8 0.00 0.06 0.02 74 1013.3
20260507141525 53 47 5.2 13.9 0.00 0.06 0.02 82 1013.2
20260507141024 53 53 4.3 12.2 0.00 0.06 0.02 82 1013.3
20260507140525 53 351 3.5 12.2 0.00 0.06 0.02 81 1013.3
20260507140028 54 22 3.5 10.4 0.00 0.06 0.02 79 1013.3
20260507135524 54 5 6.1 10.4 0.00 0.09 0.02 79 1013.5
20260507135023 54 26 2.6 11.3 0.00 0.09 0.02 79 1013.6
20260507134526 53 39 7.0 11.3 0.00 0.09 0.02 80 1013.4
20260507134025 53 360 7.0 11.3 0.00 0.09 0.02 80 1013.5
20260507133525 53 62 3.5 11.3 0.00 0.09 0.02 81 1013.4
20260507133022 53 44 3.5 9.6 0.00 0.09 0.02 81 1013.3
20260507132520 54 32 2.6 8.7 0.00 0.09 0.02 81 1013.4
20260507132022 54 9 3.5 12.2 0.00 0.09 0.02 81 1013.3
20260507131525 53 46 4.3 12.2 0.00 0.09 0.02 81 1013.3
20260507131019 53 11 2.6 8.7 0.00 0.09 0.02 81 1013.2
20260507130519 53 103 2.6 9.6 0.00 0.09 0.02 81 1013.2
20260507130018 53 360 3.5 9.6 0.00 0.09 0.02 81 1013.1
20260507125518 53 30 2.6 9.6 0.00 0.09 0.02 81 1013.0
20260507125017 53 42 3.5 9.6 0.00 0.09 0.02 80 1013.0
20260507124519 53 94 5.2 9.6 0.00 0.09 0.02 80 1013.1
20260507124021 53 5 4.3 9.6 0.00 0.09 0.02 80 1013.2
20260507123519 53 17 5.2 10.4 0.00 0.09 0.02 80 1013.1
20260507123023 53 32 3.5 12.2 0.00 0.09 0.02 80 1013.0
20260507122517 53 22 7.8 12.2 0.00 0.09 0.02 80 1013.3
20260507122016 53 14 3.5 12.2 0.00 0.09 0.02 80 1012.8
20260507121516 53 348 4.3 9.6 0.00 0.09 0.02 80 1012.9
20260507121016 53 44 1.7 12.2 0.00 0.09 0.02 80 1012.9
20260507120516 53 57 7.0 12.2 0.00 0.09 0.02 80 1013.0
20260507120015 53 52 7.0 12.2 0.00 0.09 0.02 80 1013.0
20260507115518 53 347 7.0 11.3 0.00 0.09 0.02 80 1012.9
20260507115016 53 83 3.5 12.2 0.00 0.09 0.02 81 1012.7
20260507114512 53 28 4.3 12.2 0.00 0.09 0.02 81 1012.7
20260507114012 53 5 3.5 10.4 0.00 0.09 0.02 82 1012.7
20260507113513 53 15 6.1 13.0 0.00 0.09 0.02 82 1012.7
20260507113010 53 51 6.1 13.0 0.00 0.09 0.02 82 1012.5
20260507112508 53 16 5.2 10.4 0.00 0.09 0.02 82 1012.3
20260507112010 53 21 5.2 14.8 0.00 0.09 0.02 83 1012.3
20260507111510 53 355 6.1 14.8 0.00 0.09 0.02 83 1012.3
20260507111007 53 23 5.2 10.4 0.00 0.09 0.02 82 1012.3
20260507110507 53 43 3.5 9.6 0.00 0.09 0.02 82 1012.2
20260507110011 53 77 2.6 10.4 0.00 0.09 0.02 83 1012.3
20260507105504 53 26 1.7 10.4 0.00 0.09 0.02 83 1012.7
20260507105004 53 44 0.9 10.4 0.00 0.09 0.02 82 1012.4
20260507104503 53 42 5.2 11.3 0.00 0.09 0.02 82 1012.7
20260507104001 53 346 7.8 11.3 0.00 0.09 0.02 83 1012.3
20260507103601 52 49 6.1 10.4 0.00 0.09 0.02 83 1012.2
20260507103100 52 33 5.2 11.3 0.00 0.09 0.02 83 1012.1
20260507102558 53 19 6.1 13.0 0.00 0.09 0.02 83 1012.1
20260507102059 53 360 4.3 13.0 0.00 0.09 0.02 84 1012.1
20260507101606 52 23 4.3 10.4 0.00 0.09 0.02 84 1012.2
20260507101055 52 12 4.3 12.2 0.00 0.09 0.02 84 1012.4
20260507100557 52 32 5.2 12.2 0.00 0.09 0.02 84 1012.0
20260507100056 53 32 2.6 10.4 0.00 0.09 0.02 84 1011.8
20260507095553 53 15 6.1 11.3 0.00 0.09 0.02 84 1011.4
20260507095052 53 35 3.5 12.2 0.00 0.09 0.02 83 1011.7
20260507094600 53 51 4.3 12.2 0.00 0.09 0.02 83 1011.8
20260507094057 53 17 4.3 12.2 0.00 0.09 0.02 83 1012.1
20260507093551 53 10 3.5 10.4 0.00 0.09 0.02 84 1012.2
20260507093051 53 61 5.2 12.2 0.00 0.09 0.02 84 1012.2
20260507092550 53 40 4.3 12.2 0.00 0.09 0.02 84 1012.1
20260507092050 53 62 4.3 11.3 0.00 0.09 0.02 84 1012.1
20260507091600 53 19 5.2 15.6 0.00 0.09 0.02 85 1012.2
20260507091047 53 26 6.1 15.6 0.00 0.09 0.02 85 1012.0
20260507090545 53 28 3.5 10.4 0.00 0.09 0.02 86 1011.8
20260507090106 53 28 4.3 10.4 0.00 0.09 0.02 87 1012.0
20260507085544 53 55 3.5 11.3 0.00 0.09 0.02 87 1011.8
20260507085043 53 355 5.2 11.3 0.00 0.09 0.02 87 1012.0
20260507084542 53 37 4.3 9.6 0.00 0.09 0.02 88 1012.1
20260507084042 53 50 4.3 8.7 0.00 0.09 0.02 88 1011.8
20260507083541 54 26 3.5 10.4 0.00 0.09 0.02 89 1011.8
20260507083041 54 340 4.3 11.3 0.00 0.09 0.02 89 1011.8
20260507082542 54 37 5.2 11.3 0.00 0.09 0.02 89 1011.5
20260507082038 54 53 5.2 10.4 0.00 0.09 0.02 90 1011.4
20260507081550 54 76 2.6 13.9 0.00 0.09 0.02 90 1011.4
20260507081037 54 9 4.3 13.9 0.00 0.09 0.02 91 1011.5
20260507080535 55 34 7.8 13.0 0.00 0.09 0.02 91 1011.6
20260507080034 55 36 5.2 10.4 0.00 0.09 0.02 92 1011.7
20260507075533 55 360 3.5 9.6 0.00 0.09 0.02 92 1011.7
20260507075032 55 37 3.5 8.7 0.00 0.09 0.02 92 1011.7
20260507074536 55 64 4.3 8.7 0.00 0.09 0.02 92 1011.1
20260507074031 55 9 2.6 10.4 0.00 0.09 0.02 92 1011.0
20260507073529 55 9 6.1 17.4 0.00 0.09 0.02 92 1011.1
20260507073028 56 28 7.0 17.4 0.00 0.09 0.02 93 1011.1
20260507072527 56 27 6.1 14.8 0.00 0.09 0.02 93 1010.8
20260507072025 56 49 4.3 14.8 0.01 0.09 0.02 93 1010.7
20260507071525 56 5 5.2 13.9 0.01 0.09 0.02 93 1010.5
20260507071023 57 25 5.2 8.7 0.01 0.09 0.02 93 1010.4
20260507070523 57 41 5.2 9.6 0.01 0.09 0.02 93 1010.5
20260507070023 57 36 6.1 11.3 0.01 0.09 0.02 93 1010.7
20260507065522 57 52 5.2 11.3 0.01 0.09 0.02 93 1010.8
20260507065021 57 23 4.3 10.4 0.01 0.09 0.02 93 1010.6
20260507064521 58 360 5.2 12.2 0.01 0.09 0.02 93 1010.8
20260507064020 58 5 5.2 12.2 0.01 0.09 0.02 93 1010.9
20260507063519 58 40 7.0 15.6 0.01 0.09 0.02 93 1010.7
20260507063018 58 360 7.8 20.0 0.01 0.09 0.02 93 1010.7
20260507062517 60 48 11.3 20.0 0.00 0.08 0.01 93 1010.8
20260507062015 61 328 9.6 15.6 0.00 0.08 0.01 93 1010.5
20260507061527 62 360 7.8 13.9 0.00 0.08 0.01 94 1010.2
20260507061012 62 342 7.0 12.2 0.01 0.08 0.01 94 1010.4
20260507060511 63 346 2.6 7.0 0.01 0.08 0.01 94 1010.6
20260507060021 62 322 1.7 4.3 0.01 0.08 0.01 94 1010.3
20260507055510 63 65 1.7 5.2 0.01 0.08 0.01 93 1009.5
20260507055010 63 76 1.7 7.8 0.01 0.08 0.01 93 1009.4
20260507054508 63 90 1.7 7.8 0.01 0.08 0.01 93 1009.5
20260507054008 63 37 1.7 4.3 0.01 0.08 0.01 93 1009.9
20260507053508 63 36 0.9 2.6 0.01 0.08 0.01 92 1009.7
20260507053009 63 36 0.9 2.6 0.01 0.08 0.01 92 1009.8
20260507052505 63 36 0.9 2.6 0.01 0.08 0.01 92 1009.5
20260507052005 63 36 0.9 4.3 0.01 0.08 0.01 91 1009.8
20260507051505 64 36 1.7 4.3 0.01 0.08 0.01 91 1009.6
20260507051004 64 250 1.7 3.5 0.00 0.07 0.00 90 1009.9
20260507050502 64 242 1.7 3.5 0.00 0.07 0.00 90 1010.1
20260507050003 64 242 1.7 2.6 0.00 0.07 0.00 89 1010.2
20260507045604 64 242 0.0 7.0 0.00 0.07 0.00 89 1010.4
20260507045101 65 241 0.9 9.6 0.00 0.07 0.00 89 1010.4
20260507044604 65 252 2.6 10.4 0.00 0.07 0.00 89 1010.4
20260507044059 65 216 5.2 10.4 0.00 0.07 0.00 89 1010.4
20260507043558 65 211 3.5 7.8 0.00 0.07 0.00 88 1010.3
20260507043058 65 211 3.5 8.7 0.00 0.07 0.00 88 1010.4
20260507042557 65 216 3.5 8.7 0.00 0.07 0.00 88 1010.2
20260507042055 65 261 4.3 10.4 0.00 0.07 0.00 88 1010.3
20260507041554 65 216 3.5 10.4 0.00 0.07 0.00 88 1010.1
20260507041054 65 205 4.3 9.6 0.00 0.07 0.00 87 1010.0
20260507040554 65 217 4.3 7.8 0.00 0.07 0.00 87 1010.0
20260507040052 65 216 3.5 12.2 0.00 0.07 0.00 87 1010.2
20260507035551 65 217 5.2 12.2 0.00 0.07 0.07 87 1010.2
20260507035051 65 198 5.2 12.2 0.00 0.07 0.07 88 1010.1
20260507034551 65 225 4.3 12.2 0.00 0.07 0.07 88 1010.1
20260507034050 65 188 3.5 12.2 0.00 0.07 0.07 88 1010.3
20260507033550 65 219 4.3 8.7 0.00 0.07 0.07 88 1010.5
20260507033050 65 207 6.1 9.6 0.00 0.07 0.07 88 1010.2
20260507032551 65 189 6.1 9.6 0.00 0.07 0.07 87 1010.1
20260507032049 65 190 3.5 7.0 0.00 0.07 0.07 87 1010.2
20260507031549 65 191 3.5 7.0 0.00 0.07 0.07 87 1010.2
20260507031053 65 203 3.5 7.8 0.00 0.07 0.07 86 1010.3
20260507030549 65 210 4.3 7.8 0.00 0.07 0.07 86 1010.3
20260507030056 65 204 2.6 8.7 0.00 0.07 0.07 86 1010.4
20260507025548 65 241 4.3 8.7 0.00 0.07 0.07 86 1010.4
20260507025048 65 236 4.3 8.7 0.00 0.07 0.07 86 1010.2
20260507024548 65 237 5.2 8.7 0.00 0.07 0.07 86 1010.2
20260507024053 65 213 4.3 10.4 0.00 0.07 0.07 86 1009.9
20260507023650 65 205 6.1 10.4 0.00 0.07 0.07 86 1009.7
20260507023047 65 198 7.0 10.4 0.00 0.07 0.07 86 1009.7
20260507022547 65 215 7.0 12.2 0.00 0.07 0.07 86 1009.8
20260507022047 65 182 7.0 12.2 0.00 0.07 0.07 86 1009.6
20260507021557 65 203 7.8 11.3 0.00 0.07 0.07 85 1009.6
20260507021047 65 187 6.1 10.4 0.00 0.07 0.07 85 1009.5
20260507020546 65 199 5.2 9.6 0.00 0.07 0.07 85 1009.6
20260507020052 65 227 6.1 9.6 0.00 0.07 0.07 85 1009.8
20260507015545 65 183 5.2 9.6 0.00 0.07 0.07 85 1009.8
20260507015045 65 203 4.3 8.7 0.00 0.07 0.07 85 1009.9
20260507014607 65 195 5.2 8.7 0.00 0.07 0.07 85 1010.0
20260507014046 65 201 5.2 8.7 0.00 0.07 0.07 85 1010.1
20260507013545 65 192 5.2 8.7 0.00 0.07 0.07 85 1010.1
20260507013049 65 192 6.1 8.7 0.00 0.07 0.07 85 1010.1
20260507012545 65 215 6.1 8.7 0.00 0.07 0.07 85 1010.2
20260507012045 65 195 5.2 13.0 0.00 0.07 0.07 85 1010.1
20260507011545 65 192 7.0 13.9 0.00 0.07 0.07 85 1010.1
20260507011044 65 195 6.1 13.9 0.00 0.07 0.07 85 1010.2
20260507010548 65 191 4.3 7.8 0.00 0.07 0.07 85 1010.1
20260507010050 65 198 4.3 8.7 0.00 0.07 0.07 84 1010.1
20260507005544 66 198 5.2 8.7 0.00 0.07 0.07 84 1010.2
20260507005043 66 205 4.3 8.7 0.00 0.07 0.07 84 1010.1
20260507004547 66 201 5.2 8.7 0.00 0.07 0.07 84 1009.9
20260507004043 66 182 6.1 8.7 0.00 0.07 0.07 84 1009.7
20260507003543 66 188 5.2 8.7 0.00 0.07 0.07 84 1009.8
20260507003042 66 189 6.1 10.4 0.00 0.07 0.07 84 1010.1
20260507002542 66 202 5.2 12.2 0.00 0.07 0.07 83 1010.0
20260507002042 66 190 7.8 12.2 0.00 0.07 0.07 83 1009.9
20260507001542 66 198 6.1 11.3 0.00 0.07 0.07 83 1009.9
20260507001041 66 192 6.1 11.3 0.00 0.07 0.07 83 1009.9
20260507000541 66 196 6.1 11.3 0.00 0.07 0.07 82 1009.9
20260507000044 67 183 6.1 9.6 0.00 0.07 0.07 82 1010.1
20260506235541 67 205 6.1 13.0 0.00 0.07 0.07 82 1010.0
20260506235040 67 207 4.3 13.0 0.00 0.07 0.07 81 1010.0
20260506234540 67 175 6.1 10.4 0.00 0.07 0.07 81 1010.2
20260506234041 67 224 3.5 8.7 0.00 0.07 0.07 81 1010.2
20260506233542 67 202 4.3 11.3 0.00 0.07 0.07 81 1010.1
20260506233040 67 193 7.0 13.9 0.00 0.07 0.07 81 1009.9
20260506232539 67 199 7.8 13.9 0.00 0.07 0.07 80 1009.7
20260506232040 68 211 6.1 13.0 0.00 0.07 0.07 80 1009.7
20260506231539 68 205 5.2 13.9 0.00 0.07 0.07 80 1009.6
20260506231042 68 211 4.3 13.9 0.00 0.07 0.07 80 1009.8
20260506230541 68 209 7.0 10.4 0.00 0.07 0.07 80 1009.7
20260506230038 68 206 4.3 10.4 0.00 0.07 0.07 79 1009.6
20260506225538 68 193 3.5 10.4 0.00 0.07 0.07 79 1009.5
20260506225038 68 212 7.0 11.3 0.00 0.07 0.07 79 1009.6
20260506224538 68 195 6.1 15.6 0.00 0.07 0.07 79 1009.7
20260506224038 68 190 7.8 15.6 0.00 0.07 0.07 79 1009.7
20260506223537 68 189 7.8 11.3 0.00 0.07 0.07 79 1009.6
20260506223038 68 211 7.8 12.2 0.00 0.07 0.07 79 1009.7
20260506222537 68 202 7.0 15.6 0.00 0.07 0.07 80 1009.6
20260506222037 68 178 10.4 15.6 0.00 0.07 0.07 80 1009.6
20260506221536 68 192 6.1 14.8 0.00 0.07 0.07 80 1009.7
20260506221036 68 183 7.0 14.8 0.00 0.07 0.07 80 1009.7
20260506220536 68 186 9.6 13.0 0.00 0.07 0.07 79 1009.7
20260506220038 68 198 6.1 13.9 0.00 0.07 0.07 80 1009.8
20260506215534 68 221 7.8 13.9 0.00 0.07 0.07 80 1009.9
20260506215035 68 223 8.7 15.6 0.00 0.07 0.07 80 1009.6
20260506214535 68 199 8.7 15.6 0.00 0.07 0.07 80 1009.5
20260506214035 68 209 8.7 13.0 0.00 0.07 0.07 80 1009.3
20260506213535 68 192 7.8 13.0 0.00 0.07 0.07 80 1009.4
20260506213034 68 182 7.8 15.6 0.00 0.07 0.07 80 1009.6
20260506212534 68 188 7.0 19.1 0.00 0.07 0.07 80 1009.6
20260506212034 67 198 7.8 19.1 0.00 0.07 0.07 80 1009.6
20260506211536 68 204 7.8 16.5 0.00 0.07 0.07 80 1009.7
20260506211033 68 182 9.6 16.5 0.00 0.07 0.07 79 1009.6
20260506210535 68 223 6.1 17.4 0.00 0.07 0.07 80 1009.5
20260506210033 68 203 6.1 19.1 0.00 0.07 0.07 79 1009.7
20260506205532 68 201 9.6 19.1 0.00 0.07 0.07 78 1009.6
20260506205035 68 209 4.3 18.2 0.00 0.07 0.07 79 1009.6
20260506204532 68 231 6.1 18.2 0.00 0.07 0.07 79 1009.6
20260506204031 68 208 7.0 17.4 0.00 0.07 0.07 79 1009.6
20260506203532 67 198 6.1 17.4 0.00 0.07 0.07 79 1009.6
20260506203032 67 197 7.8 15.6 0.00 0.07 0.07 79 1009.5
20260506202531 67 194 9.6 15.6 0.00 0.07 0.07 79 1009.5
20260506202031 67 205 8.7 18.2 0.00 0.07 0.07 79 1009.5
20260506201542 67 184 7.0 18.2 0.00 0.07 0.07 79 1009.5
20260506201032 67 234 9.6 18.2 0.00 0.07 0.07 79 1009.5
20260506200530 67 225 9.6 18.2 0.00 0.07 0.07 80 1009.4
20260506200031 67 165 7.0 14.8 0.00 0.07 0.07 81 1009.6
20260506195530 66 198 6.1 12.2 0.00 0.07 0.07 81 1009.6
20260506195031 65 236 6.1 12.2 0.00 0.07 0.07 82 1009.7
20260506194532 65 175 5.2 11.3 0.00 0.07 0.07 83 1009.7
20260506194027 65 201 4.3 11.3 0.00 0.07 0.07 83 1009.6
20260506193527 64 207 4.3 15.6 0.00 0.07 0.07 83 1009.7
20260506193027 64 190 3.5 15.6 0.00 0.07 0.07 83 1009.4
20260506192527 64 180 5.2 12.2 0.00 0.07 0.07 83 1009.4
20260506192026 64 211 7.0 16.5 0.00 0.07 0.07 83 1009.7
20260506191526 64 200 8.7 16.5 0.00 0.07 0.07 83 1009.7
20260506191024 64 194 7.8 18.2 0.00 0.07 0.07 83 1009.9
20260506190523 64 175 10.4 18.2 0.00 0.07 0.07 83 1009.9
20260506190024 64 167 7.8 16.5 0.00 0.07 0.07 83 1010.0
20260506185524 64 181 7.0 19.1 0.00 0.07 0.07 83 1010.0
20260506185024 64 193 7.8 19.1 0.00 0.07 0.07 83 1010.0
20260506184522 64 211 11.3 19.1 0.00 0.07 0.07 83 1010.1
20260506184022 64 175 10.4 16.5 0.00 0.07 0.07 83 1010.4
20260506183522 64 185 11.3 18.2 0.00 0.07 0.07 84 1010.2
20260506183022 64 196 11.3 16.5 0.00 0.07 0.07 84 1010.2
20260506182520 64 193 7.0 17.4 0.00 0.07 0.07 85 1010.2
20260506182019 64 208 7.8 17.4 0.00 0.07 0.07 85 1010.5
20260506181519 63 220 7.8 16.5 0.00 0.07 0.07 86 1010.5
20260506181019 63 208 9.6 19.1 0.00 0.07 0.07 86 1010.6
20260506180524 63 218 9.6 19.1 0.00 0.07 0.07 86 1010.4
20260506180019 63 173 7.0 13.9 0.00 0.07 0.07 87 1010.6
20260506175521 63 233 7.0 17.4 0.00 0.07 0.07 87 1010.5
20260506175017 63 211 11.3 20.9 0.00 0.07 0.07 87 1010.6